EW3453 Weather Reports


time (UTC)temp
F
wind
direction
speed
knots
gust
knots
rain 1hr
in
rain 24hr
in
rain mn
in
humidity
%
barometer
mb
20260504044528 43 285 0.0 0.9 0.00 0.00 0.00 67 1014.4
20260504043025 44 285 0.0 0.9 0.00 0.00 0.00 65 1014.4
20260504041524 44 285 0.0 0.0 0.00 0.00 0.00 64 1014.4
20260504040022 44 285 0.0 0.9 0.00 0.00 0.00 63 1014.4
20260504034522 44 285 0.0 0.0 0.00 0.00 0.00 63 1014.2
20260504033021 45 285 0.0 0.0 0.00 0.00 0.00 63 1014.2
20260504031521 45 285 0.0 0.9 0.00 0.00 0.00 61 1014.2
20260504030019 45 285 0.0 0.0 0.00 0.00 0.00 61 1014.2
20260504024519 46 285 0.0 0.0 0.00 0.00 0.00 60 1014.4
20260504023019 45 285 0.0 0.9 0.00 0.00 0.00 61 1014.4
20260504021518 46 285 0.0 0.0 0.00 0.00 0.00 60 1014.4
20260504020025 46 285 0.0 0.0 0.00 0.00 0.00 59 1014.4
20260504014517 47 274 0.0 0.9 0.00 0.00 0.00 58 1014.2
20260504013022 48 274 0.0 0.0 0.00 0.00 0.00 57 1014.2
20260504011517 48 274 0.0 0.0 0.00 0.00 0.00 55 1014.0
20260504010015 49 274 0.0 0.9 0.00 0.00 0.00 53 1014.1
20260504004532 50 274 0.0 0.9 0.00 0.00 0.00 52 1014.0
20260504003017 51 274 0.0 0.9 0.00 0.00 0.00 50 1013.9
20260504001528 51 104 0.0 0.9 0.00 0.00 0.00 48 1013.7
20260504000013 53 104 0.0 0.9 0.00 0.00 0.00 47 1013.7
20260503234517 54 103 0.0 3.5 0.00 0.00 0.00 43 1013.7
20260503233013 54 225 0.0 3.5 0.00 0.00 0.00 43 1013.6
20260503231512 55 243 0.9 3.5 0.00 0.00 0.00 42 1013.6
20260503230014 55 53 0.9 6.1 0.00 0.00 0.00 42 1013.7
20260503224510 56 13 0.0 5.2 0.00 0.00 0.00 42 1013.6
20260503223011 55 58 0.9 4.3 0.00 0.00 0.00 42 1013.7
20260503221510 55 72 0.9 4.3 0.00 0.00 0.00 41 1013.8
20260503220020 56 39 2.6 13.0 0.00 0.00 0.00 41 1013.8
20260503214519 56 274 0.9 10.4 0.00 0.00 0.00 39 1013.8
20260503213011 57 72 2.6 7.8 0.00 0.00 0.00 40 1013.7
20260503211505 57 104 3.5 8.7 0.00 0.00 0.00 40 1013.5
20260503210003 56 266 0.9 7.8 0.00 0.00 0.00 41 1013.8
20260503204502 56 20 1.7 7.8 0.00 0.00 0.00 39 1013.8
20260503203002 56 41 3.5 7.0 0.00 0.00 0.00 39 1014.0
20260503201600 56 127 0.9 9.6 0.00 0.00 0.00 41 1014.0
20260503200058 56 20 2.6 7.8 0.00 0.00 0.00 39 1014.1
20260503194621 56 55 3.5 9.6 0.00 0.00 0.00 39 1014.3
20260503193055 56 86 1.7 6.1 0.00 0.00 0.00 41 1014.5
20260503191558 56 48 0.9 7.0 0.00 0.00 0.00 41 1014.7
20260503190052 55 54 0.0 7.8 0.00 0.00 0.00 42 1014.8
20260503184551 55 27 3.5 8.7 0.00 0.00 0.00 41 1015.0
20260503183055 55 295 1.7 5.2 0.00 0.00 0.00 40 1015.0
20260503181559 55 41 1.7 9.6 0.00 0.00 0.00 40 1015.2
20260503180050 55 59 1.7 6.1 0.00 0.00 0.00 42 1015.3
20260503174547 54 55 4.3 11.3 0.00 0.00 0.00 43 1015.4
20260503173041 52 340 0.9 8.7 0.00 0.00 0.00 44 1015.4
20260503171539 53 62 1.7 7.8 0.00 0.00 0.00 42 1015.5
20260503081520 36 46 0.9 2.6 0.00 0.00 0.00 72 1015.6
20260503071508 36 63 0.0 1.7 0.00 0.00 0.00 72 1015.3
20260503054553 37 25 0.0 3.5 0.00 0.03 0.00 69 1015.3
20260503053051 38 49 0.9 3.5 0.00 0.03 0.00 67 1015.5
20260503051550 39 31 0.9 4.3 0.00 0.03 0.00 66 1015.5
20260503050046 39 64 0.0 2.6 0.00 0.03 0.00 66 1015.5